Location: Arroyo de Fuente Vieja
(40.4902°N, 4.1175°W)
Time: 13:46:40
(UTC+00:00)

ATLAS 3B R/B - Pass Details

Date: 18 April 2024
Orbit: 943 x 1251 km, 63.8° (Epoch: 26 May)

Event Time Altitude Azimuth Distance (km) Brightness Sun altitude
Rises 20:12:40 0° 219° (SW) 3,815 5.7 -13.8°
Reaches altitude 10° 20:15:13 10° 221° (SW) 2,907 5.1 -14.2°
Maximum altitude 20:22:09 72° 306° (NW) 1,194 3.1 -15.4°
Drops below altitude 10° 20:29:41 10° 31° (NNE) 3,141 5.2 -16.6°
Sets 20:32:33 0° 33° (NNE) 4,141 5.8 -17.0°
